Regional Weather Roundup
Issued by NWS

Home | Current Version | Previous Version | Text Only | Print | Product List | Glossary On
Versions: 1 2 3 4 5 6 7 8 9 10 11 12 13 14 15 16 17 18 19 20 21 22 23 24 25 26
000
ASUS44 KLIX 291713
RWRLA
LOUISIANA WEATHER ROUNDUP
NATIONAL WEATHER SERVICE NEW ORLEANS LA
1200 PM CDT THU JUN 29 2017

NOTE: "FAIR" INDICATES FEW OR NO CLOUDS BELOW 12,000 FEET WITH NO
      SIGNIFICANT WEATHER AND/OR OBSTRUCTIONS TO VISIBILITY.
      SKY/WX - SKY CONDITION AND SIGNIFICANT WEATHER.
      TMP - AIR TEMPERATURE.    DP   - DEWPOINT TEMPERATURE.
      RH  - RELATIVE HUMIDITY.  PRES - PRESSURE.
      HX  - HEAT INDEX.         WCI  - WIND CHILL INDEX.

*  THESE STATIONS ARE NOT NWS OR FAA STATIONS AND ARE NOT UNDER
   NWS QUALITY CONTROL.

LAZ040-048-061>063-065-066-069-291800-
SOUTHEAST LOUISIANA

CITY           SKY/WX    TMP DP  RH WIND       PRES   REMARKS
N.O. INTL ARPT LGT RAIN  80  77  90 S9        30.01S
N.O. LAKEFRONT LGT RAIN  83  76  79 S12       30.02S
N.O. DOWNTOWN*   N/A     83  76  79 S13         N/A
RESERVE*       HVY RAIN  77  74  90 SW7       30.02S
SLIDELL        CLOUDY    81  75  82 S7        30.02S
BATON ROUGE    LGT RAIN  75  73  93 SE15G24   30.00S
BOOTHVILLE     CLOUDY    84  79  85 S8G16     30.03F HX  96
BELLE CHASSE   PTSUNNY   81  78  91 S10       30.01S
BOGALUSA*      CLOUDY    80  73  79 SE7       30.05S
GALLIANO*      LGT RAIN  82  76  82 S9        30.02S
NEW ROADS*     RAIN      79  75  88 SE10      29.98S
GONZALES*      CLOUDY    73  73 100 S10G17    30.01S
HAMMOND*       CLOUDY    77  72  83 SE8       30.01F
HOUMA*         MOSUNNY   73  73 100 S7        30.02R FOG
PORT FOURCHON* SUNNY     82  79  89 S12       30.02S

$$

LAZ041-044-053-054-291800-
SOUTHWEST LOUISIANA

CITY           SKY/WX    TMP DP  RH WIND       PRES   REMARKS
LAKE CHARLES   CLOUDY    80  32  17 E7        29.94R
LAFAYETTE      HVY RAIN  77  76  96 S8        29.96S VSB 3/4
PATTERSON      CLOUDY    81  74  79 S14       30.00S
SALT POINT       N/A     80  74  81 VRB3      29.98S
NEW IBERIA     LGT RAIN  78  74  87 S18G26    29.98R
CHENAULT AIRPK CLOUDY    79  75  89 SE3       29.95R

$$

LAZ027-028-291800-
CENTRAL LOUISIANA

CITY           SKY/WX    TMP DP  RH WIND       PRES   REMARKS
FORT POLK      CLOUDY    81  73  77 SW6       29.92F
ALEXANDRIA INT CLOUDY    80  74  81 SW9       29.91F
ALEXANDRIA     LGT RAIN  77  75  93 S9        29.93F

$$

LAZ001-002-291800-
NORTHWEST LOUISIANA

CITY           SKY/WX    TMP DP  RH WIND       PRES   REMARKS
SHREVEPORT     CLOUDY    83  74  74 S6        29.93S
BARKSDALE AFB  PTSUNNY   83  72  71 S6        29.93S
DTN SHREVEPORT CLOUDY    84  73  69 SE9       29.93F

$$

LAZ014-016-291800-
NORTHEAST LOUISIANA

CITY           SKY/WX    TMP DP  RH WIND       PRES   REMARKS
MONROE         CLOUDY    81  72  74 S7        29.97S
TALLULAH       PTSUNNY   81  73  76 S9        29.98F

$$





USA.gov is the U.S. government's official web portal to all federal, state and local government web resources and services.